When you browse on this site, cookies collect data to enhance your experience and personalize the content and advertising you see.
Visit our Privacy Policy to learn more. By continuing to use the site, you agree to this use of cookies and data.
  • In Hungary
  • List of Countries
  • For 7 days
  • Water Temperature
  • Weather Map
  • News
  • Weather Widgets
  • user-avatar
    Login

    Hourly Weather Hobart

    Today, 31 May, Sunday

    Time Temperature Precipitation Wind Pressure Humidity
    00:00 +10°C° 0 mm 4 mps 740 mmHg 67%
    01:00 +10°C° 0 mm 4 mps 739 mmHg 67%
    02:00 +10°C° 0 mm 3 mps 739 mmHg 73%
    03:00 +9°C° 0 mm 2 mps 739 mmHg 78%
    04:00 +9°C° 0 mm 2 mps 738 mmHg 80%
    05:00 +9°C° 0.1 mm 2 mps 739 mmHg 83%
    06:00 +9°C° 0.1 mm 2 mps 739 mmHg 85%
    07:00 +8°C° 0.1 mm 2 mps 739 mmHg 88%
    08:00 +9°C° 0 mm 2 mps 740 mmHg 82%
    09:00 +10°C° 0 mm 3 mps 740 mmHg 75%
    10:00 +11°C° 0 mm 3 mps 741 mmHg 68%
    11:00 +12°C° 0 mm 3 mps 741 mmHg 63%
    12:00 +13°C° 0 mm 4 mps 740 mmHg 58%
    13:00 +13°C° 0 mm 4 mps 740 mmHg 53%
    14:00 +13°C° 0 mm 3 mps 740 mmHg 56%
    15:00 +13°C° 0 mm 2 mps 740 mmHg 58%
    16:00 +12°C° 0 mm 2 mps 740 mmHg 62%
    17:00 +10°C° 0 mm 2 mps 740 mmHg 68%
    18:00 +8°C° 0 mm 2 mps 739 mmHg 74%
    19:00 +7°C° 0 mm 2 mps 739 mmHg 80%
    20:00 +7°C° 0 mm 2 mps 739 mmHg 80%
    21:00 +7°C° 0 mm 3 mps 739 mmHg 81%
    22:00 +5°C° 0 mm 3 mps 739 mmHg 82%
    23:00 +5°C° 0 mm 3 mps 738 mmHg 81%

    Tomorrow, 1 June, Monday

    Time Temperature Precipitation Wind Pressure Humidity
    00:00 +6°C° 0 mm 2 mps 738 mmHg 79%
    01:00 +6°C° 0 mm 2 mps 737 mmHg 78%
    02:00 +6°C° 0 mm 2 mps 737 mmHg 78%
    03:00 +7°C° 0 mm 2 mps 737 mmHg 78%
    04:00 +7°C° 0 mm 2 mps 737 mmHg 78%
    05:00 +6°C° 0 mm 2 mps 737 mmHg 81%
    06:00 +6°C° 0 mm 2 mps 737 mmHg 84%
    07:00 +6°C° 0 mm 2 mps 737 mmHg 87%
    08:00 +7°C° 0 mm 2 mps 737 mmHg 81%
    09:00 +9°C° 0 mm 2 mps 737 mmHg 74%
    10:00 +10°C° 0 mm 2 mps 738 mmHg 68%
    11:00 +13°C° 0 mm 1 mps 738 mmHg 64%
    12:00 +14°C° 0 mm 1 mps 738 mmHg 60%
    13:00 +15°C° 0 mm 1 mps 738 mmHg 55%
    14:00 +14°C° 0 mm 1 mps 738 mmHg 59%
    15:00 +14°C° 0 mm 2 mps 739 mmHg 63%
    16:00 +13°C° 0 mm 2 mps 739 mmHg 67%
    17:00 +12°C° 0 mm 2 mps 740 mmHg 74%
    18:00 +10°C° 0 mm 2 mps 740 mmHg 82%
    19:00 +9°C° 0 mm 2 mps 741 mmHg 89%
    20:00 +8°C° 0 mm 2 mps 742 mmHg 90%
    21:00 +8°C° 0 mm 2 mps 742 mmHg 91%
    22:00 +7°C° 0 mm 2 mps 743 mmHg 92%
    23:00 +7°C° 0 mm 2 mps 743 mmHg 89%

    Day after tomorrow, 2 June, Tuesday

    Time Temperature Precipitation Wind Pressure Humidity
    00:00 +6°C° 0 mm 2 mps 743 mmHg 86%
    01:00 +4°C° 0 mm 3 mps 743 mmHg 83%
    02:00 +4°C° 0 mm 3 mps 742 mmHg 83%
    03:00 +4°C° 0 mm 3 mps 742 mmHg 82%
    04:00 +4°C° 0 mm 3 mps 742 mmHg 82%
    05:00 +5°C° 0 mm 3 mps 742 mmHg 82%
    06:00 +5°C° 0 mm 3 mps 743 mmHg 83%
    07:00 +7°C° 0 mm 3 mps 743 mmHg 83%
    08:00 +8°C° 0 mm 3 mps 743 mmHg 79%
    09:00 +10°C° 0 mm 3 mps 743 mmHg 74%
    10:00 +11°C° 0 mm 4 mps 743 mmHg 69%
    11:00 +12°C° 0 mm 4 mps 743 mmHg 68%
    12:00 +12°C° 0 mm 5 mps 742 mmHg 66%
    13:00 +13°C° 0 mm 5 mps 741 mmHg 64%
    14:00 +12°C° 0.1 mm 4 mps 741 mmHg 70%
    15:00 +11°C° 0.1 mm 4 mps 741 mmHg 76%
    16:00 +11°C° 0.1 mm 3 mps 741 mmHg 81%
    17:00 +10°C° 0.1 mm 4 mps 741 mmHg 79%
    18:00 +9°C° 0.1 mm 5 mps 741 mmHg 77%
    19:00 +9°C° 0.1 mm 5 mps 742 mmHg 74%
    20:00 +8°C° 0 mm 5 mps 742 mmHg 76%
    21:00 +7°C° 0 mm 5 mps 743 mmHg 78%
    22:00 +7°C° 0 mm 4 mps 744 mmHg 80%
    23:00 +6°C° 0 mm 4 mps 744 mmHg 81%

    3 June, Wednesday

    Time Temperature Precipitation Wind Pressure Humidity
    00:00 +6°C° 0 mm 5 mps 745 mmHg 81%
    01:00 +5°C° 0 mm 5 mps 745 mmHg 82%
    02:00 +5°C° 0 mm 5 mps 746 mmHg 81%
    03:00 +5°C° 0 mm 5 mps 747 mmHg 81%
    04:00 +5°C° 0 mm 5 mps 748 mmHg 81%
    05:00 +5°C° 0.1 mm 5 mps 749 mmHg 82%
    06:00 +5°C° 0.1 mm 5 mps 750 mmHg 83%
    07:00 +5°C° 0.1 mm 5 mps 751 mmHg 84%
    08:00 +6°C° 0 mm 5 mps 752 mmHg 78%
    09:00 +6°C° 0 mm 5 mps 753 mmHg 73%
    10:00 +7°C° 0 mm 5 mps 754 mmHg 67%
    11:00 +7°C° 0 mm 5 mps 754 mmHg 64%
    12:00 +8°C° 0 mm 5 mps 755 mmHg 61%
    13:00 +8°C° 0 mm 5 mps 755 mmHg 58%
    14:00 +8°C° 0 mm 4 mps 756 mmHg 59%
    15:00 +7°C° 0 mm 4 mps 756 mmHg 60%
    16:00 +8°C° 0 mm 3 mps 757 mmHg 61%
    17:00 +7°C° 0 mm 3 mps 757 mmHg 67%
    18:00 +5°C° 0 mm 2 mps 758 mmHg 72%
    19:00 +4°C° 0 mm 2 mps 758 mmHg 78%
    20:00 +4°C° 0 mm 2 mps 759 mmHg 80%
    21:00 +3°C° 0 mm 2 mps 759 mmHg 82%
    22:00 +4°C° 0 mm 1 mps 759 mmHg 83%
    23:00 +3°C° 0 mm 2 mps 759 mmHg 85%

    4 June, Thursday

    Time Temperature Precipitation Wind Pressure Humidity
    00:00 +2°C° 0 mm 2 mps 759 mmHg 86%
    01:00 +2°C° 0 mm 2 mps 759 mmHg 87%
    02:00 +2°C° 0 mm 2 mps 759 mmHg 88%
    03:00 +2°C° 0 mm 2 mps 759 mmHg 89%
    04:00 +1°C° 0 mm 2 mps 759 mmHg 90%
    05:00 +1°C° 0 mm 2 mps 759 mmHg 90%
    06:00 +1°C° 0 mm 2 mps 759 mmHg 89%
    07:00 +1°C° 0 mm 2 mps 759 mmHg 89%
    08:00 +3°C° 0 mm 2 mps 759 mmHg 80%
    09:00 +5°C° 0 mm 2 mps 759 mmHg 72%
    10:00 +6°C° 0 mm 2 mps 759 mmHg 64%
    11:00 +9°C° 0 mm 1 mps 758 mmHg 57%
    12:00 +11°C° 0 mm 1 mps 758 mmHg 50%
    13:00 +12°C° 0 mm 1 mps 757 mmHg 44%
    14:00 +12°C° 0 mm 1 mps 757 mmHg 48%
    15:00 +11°C° 0 mm 1 mps 757 mmHg 52%
    16:00 +10°C° 0 mm 1 mps 756 mmHg 56%
    17:00 +9°C° 0 mm 1 mps 756 mmHg 62%
    18:00 +7°C° 0 mm 1 mps 756 mmHg 67%
    19:00 +6°C° 0 mm 1 mps 756 mmHg 73%
    20:00 +5°C° 0 mm 1 mps 756 mmHg 77%
    21:00 +4°C° 0 mm 2 mps 756 mmHg 80%
    22:00 +4°C° 0 mm 2 mps 756 mmHg 84%
    23:00 +4°C° 0 mm 2 mps 756 mmHg 86%

    5 June, Friday

    Time Temperature Precipitation Wind Pressure Humidity
    00:00 +4°C° 0 mm 2 mps 755 mmHg 88%
    01:00 +3°C° 0 mm 2 mps 755 mmHg 89%
    02:00 +4°C° 0 mm 2 mps 755 mmHg 89%
    03:00 +4°C° 0 mm 2 mps 754 mmHg 89%
    04:00 +4°C° 0 mm 2 mps 754 mmHg 89%
    05:00 +4°C° 0 mm 2 mps 754 mmHg 88%
    06:00 +5°C° 0 mm 2 mps 754 mmHg 87%
    07:00 +5°C° 0 mm 2 mps 754 mmHg 86%
    08:00 +6°C° 0 mm 2 mps 754 mmHg 83%
    09:00 +7°C° 0 mm 2 mps 754 mmHg 80%
    10:00 +8°C° 0 mm 3 mps 754 mmHg 76%
    11:00 +9°C° 0 mm 3 mps 754 mmHg 73%
    12:00 +10°C° 0 mm 3 mps 753 mmHg 70%
    13:00 +11°C° 0 mm 3 mps 753 mmHg 67%
    14:00 +10°C° 0 mm 2 mps 753 mmHg 69%
    15:00 +10°C° 0 mm 2 mps 752 mmHg 72%
    16:00 +10°C° 0 mm 2 mps 752 mmHg 74%
    17:00 +9°C° 0 mm 2 mps 752 mmHg 77%
    18:00 +9°C° 0 mm 2 mps 753 mmHg 80%
    19:00 +8°C° 0 mm 2 mps 753 mmHg 83%
    20:00 +8°C° 0 mm 2 mps 753 mmHg 85%
    21:00 +8°C° 0 mm 2 mps 753 mmHg 87%
    22:00 +8°C° 0 mm 2 mps 753 mmHg 88%
    23:00 +8°C° 0 mm 2 mps 753 mmHg 88%
    Show more